| time (UTC) | temp F | wind direction | speed knots | gust knots | rain 1hr in | rain 24hr in | rain mn in | humidity % | barometer mb |
| 20260507173053 | 62 | 286 | 6.1 | 12.2 | 0.00 | 1.40 | 0.97 | 39 | 1005.8 |
| 20260507171552 | 62 | 310 | 4.3 | 14.8 | 0.00 | 1.40 | 0.97 | 46 | 1005.8 |
| 20260507170051 | 62 | 303 | 3.5 | 11.3 | 0.00 | 1.40 | 0.97 | 53 | 1006.0 |
| 20260507164604 | 61 | 267 | 1.7 | 5.2 | 0.00 | 1.40 | 0.97 | 59 | 1006.1 |
| 20260507163044 | 60 | 331 | 1.7 | 11.3 | 0.00 | 1.40 | 0.97 | 60 | 1006.1 |
| 20260507161547 | 60 | 311 | 5.2 | 11.3 | 0.00 | 1.40 | 0.97 | 59 | 1006.4 |
| 20260507160045 | 60 | 291 | 0.9 | 7.0 | 0.00 | 1.40 | 0.97 | 67 | 1006.5 |
| 20260507154639 | 58 | 281 | 2.6 | 5.2 | 0.00 | 1.40 | 0.97 | 65 | 1006.7 |
| 20260507153035 | 58 | 23 | 2.6 | 5.2 | 0.00 | 1.40 | 0.97 | 68 | 1006.9 |
| 20260507151535 | 58 | 304 | 2.6 | 7.0 | 0.00 | 1.40 | 0.97 | 70 | 1006.9 |
| 20260507150035 | 57 | 302 | 3.5 | 9.6 | 0.00 | 1.40 | 0.97 | 71 | 1007.2 |
| 20260507144530 | 58 | 305 | 1.7 | 4.3 | 0.00 | 1.40 | 0.97 | 73 | 1007.1 |
| 20260507143045 | 57 | 324 | 2.6 | 8.7 | 0.00 | 1.40 | 0.97 | 72 | 1007.2 |
| 20260507141528 | 56 | 306 | 3.5 | 8.7 | 0.00 | 1.40 | 0.97 | 73 | 1007.4 |
| 20260507140021 | 55 | 327 | 2.6 | 7.8 | 0.00 | 1.40 | 0.97 | 79 | 1007.4 |
| 20260507134517 | 54 | 284 | 0.9 | 7.8 | 0.00 | 1.40 | 0.97 | 84 | 1007.3 |
| 20260507133013 | 52 | 14 | 2.6 | 5.2 | 0.83 | 1.40 | 0.97 | 91 | 1007.6 |
| 20260507131511 | 51 | 336 | 0.9 | 7.0 | 0.83 | 1.40 | 0.97 | 95 | 1007.5 |
| 20260507130026 | 50 | 317 | 2.6 | 7.8 | 0.84 | 1.40 | 0.97 | 96 | 1007.8 |
| 20260507124507 | 50 | 351 | 0.9 | 2.6 | 0.84 | 1.40 | 0.97 | 97 | 1007.6 |
| 20260507123007 | 50 | 327 | 0.0 | 2.6 | 0.01 | 0.56 | 0.14 | 97 | 1007.5 |
| 20260507121505 | 49 | 329 | 0.0 | 1.7 | 0.01 | 0.56 | 0.14 | 96 | 1007.8 |
| 20260507120005 | 49 | 308 | 0.0 | 2.6 | 0.05 | 0.56 | 0.13 | 96 | 1007.5 |
| 20260507114504 | 48 | 304 | 0.0 | 1.7 | 0.07 | 0.56 | 0.13 | 96 | 1007.5 |
| 20260507113001 | 48 | 304 | 0.0 | 0.9 | 0.07 | 0.56 | 0.13 | 96 | 1007.2 |
| 20260507111601 | 48 | 304 | 0.0 | 0.9 | 0.07 | 0.56 | 0.13 | 96 | 1007.5 |
| 20260507110100 | 48 | 306 | 0.0 | 2.6 | 0.02 | 0.51 | 0.08 | 96 | 1007.7 |
| 20260507104604 | 48 | 302 | 0.0 | 2.6 | 0.03 | 0.49 | 0.06 | 96 | 1007.0 |
| 20260507103056 | 48 | 302 | 0.0 | 1.7 | 0.03 | 0.49 | 0.06 | 95 | 1006.9 |
| 20260507101554 | 48 | 69 | 0.0 | 2.6 | 0.03 | 0.49 | 0.06 | 96 | 1007.2 |
| 20260507100058 | 48 | 286 | 0.0 | 1.7 | 0.03 | 0.49 | 0.06 | 95 | 1007.2 |
| 20260507094550 | 48 | 286 | 0.0 | 1.7 | 0.01 | 0.46 | 0.03 | 95 | 1006.9 |
| 20260507093049 | 48 | 287 | 0.0 | 2.6 | 0.01 | 0.46 | 0.03 | 95 | 1006.8 |
| 20260507091548 | 48 | 287 | 0.0 | 0.9 | 0.01 | 0.46 | 0.03 | 95 | 1006.7 |
| 20260507090057 | 49 | 286 | 1.7 | 4.3 | 0.01 | 0.46 | 0.03 | 94 | 1006.8 |
| 20260507084551 | 49 | 321 | 0.0 | 4.3 | 0.00 | 0.45 | 0.02 | 94 | 1006.3 |
| 20260507083042 | 49 | 323 | 2.6 | 7.0 | 0.02 | 0.45 | 0.02 | 93 | 1006.4 |
| 20260507081550 | 50 | 315 | 1.7 | 9.6 | 0.02 | 0.45 | 0.02 | 93 | 1006.0 |
| 20260507080034 | 52 | 298 | 1.7 | 4.3 | 0.02 | 0.45 | 0.02 | 93 | 1006.8 |
| 20260507074529 | 53 | 300 | 1.7 | 7.0 | 0.02 | 0.45 | 0.02 | 93 | 1006.5 |
| 20260507073027 | 55 | 315 | 0.9 | 4.3 | 0.00 | 0.43 | 0.00 | 92 | 1005.9 |
| 20260507071528 | 55 | 303 | 1.7 | 6.1 | 0.00 | 0.43 | 0.00 | 95 | 1005.2 |
| 20260507070023 | 56 | 291 | 0.0 | 2.6 | 0.00 | 0.43 | 0.00 | 96 | 1005.1 |
| 20260507064533 | 56 | 306 | 0.9 | 7.0 | 0.00 | 0.43 | 0.00 | 96 | 1005.3 |
| 20260507063020 | 56 | 5 | 0.0 | 1.7 | 0.00 | 0.43 | 0.00 | 97 | 1005.4 |
| 20260507061518 | 56 | 25 | 0.0 | 0.0 | 0.00 | 0.43 | 0.00 | 97 | 1005.4 |
| 20260507060020 | 56 | 25 | 0.0 | 0.0 | 0.00 | 0.43 | 0.00 | 97 | 1005.5 |
| 20260507054516 | 56 | 25 | 0.0 | 0.9 | 0.00 | 0.43 | 0.00 | 97 | 1005.8 |
| 20260507053013 | 56 | 25 | 0.0 | 0.0 | 0.00 | 0.43 | 0.00 | 97 | 1005.8 |
| 20260507051514 | 56 | 25 | 0.0 | 0.0 | 0.00 | 0.43 | 0.00 | 97 | 1005.9 |
| 20260507050032 | 56 | 25 | 0.0 | 0.9 | 0.00 | 0.43 | 0.00 | 97 | 1006.2 |
| 20260507044511 | 56 | 25 | 0.0 | 0.9 | 0.00 | 0.43 | 0.00 | 97 | 1006.1 |
| 20260507043011 | 56 | 25 | 0.0 | 0.0 | 0.00 | 0.43 | 0.00 | 97 | 1006.2 |
| 20260507041521 | 56 | 25 | 0.0 | 0.0 | 0.00 | 0.43 | 0.00 | 97 | 1005.8 |
| 20260507040007 | 56 | 25 | 0.0 | 0.9 | 0.00 | 0.43 | 0.00 | 97 | 1006.1 |
| 20260507034506 | 56 | 33 | 0.0 | 1.7 | 0.00 | 0.43 | 0.43 | 97 | 1006.1 |
| 20260507033006 | 55 | 96 | 0.0 | 2.6 | 0.00 | 0.43 | 0.43 | 97 | 1006.3 |
| 20260507031508 | 55 | 5 | 0.0 | 1.7 | 0.00 | 0.43 | 0.43 | 96 | 1006.0 |
| 20260507030016 | 55 | 355 | 0.0 | 1.7 | 0.43 | 0.43 | 0.43 | 96 | 1006.0 |
| 20260507024512 | 55 | 313 | 0.0 | 2.6 | 0.43 | 0.43 | 0.43 | 96 | 1006.0 |
| 20260507023003 | 55 | 30 | 0.0 | 2.6 | 0.43 | 0.43 | 0.43 | 96 | 1006.1 |
| 20260507021502 | 55 | 104 | 0.0 | 2.6 | 0.43 | 0.43 | 0.43 | 96 | 1006.0 |
| 20260507020001 | 55 | 185 | 0.0 | 2.6 | 0.00 | 0.00 | 0.00 | 96 | 1006.2 |
| 20260507014602 | 55 | 163 | 0.0 | 1.7 | 0.00 | 0.00 | 0.00 | 96 | 1006.3 |
| 20260507013059 | 55 | 132 | 0.0 | 3.5 | 0.00 | 0.00 | 0.00 | 96 | 1006.5 |
| 20260507011559 | 55 | 171 | 0.9 | 1.7 | 0.00 | 0.00 | 0.00 | 96 | 1006.5 |
| 20260507010111 | 55 | 82 | 0.0 | 3.5 | 0.00 | 0.00 | 0.00 | 96 | 1006.6 |
| 20260507004557 | 55 | 17 | 0.0 | 1.7 | 0.00 | 0.00 | 0.00 | 96 | 1006.5 |
| 20260507003057 | 55 | 258 | 0.9 | 3.5 | 0.00 | 0.00 | 0.00 | 96 | 1006.5 |
| 20260507001605 | 55 | 155 | 0.0 | 3.5 | 0.00 | 0.00 | 0.00 | 96 | 1006.6 |
| 20260507000056 | 55 | 25 | 0.0 | 4.3 | 0.00 | 0.00 | 0.00 | 96 | 1006.6 |
| 20260506234559 | 55 | 135 | 0.9 | 3.5 | 0.00 | 0.00 | 0.00 | 95 | 1006.4 |
| 20260506233055 | 55 | 96 | 0.9 | 6.1 | 0.00 | 0.00 | 0.00 | 95 | 1006.5 |
| 20260506231607 | 55 | 171 | 0.0 | 3.5 | 0.00 | 0.00 | 0.00 | 95 | 1006.5 |
| 20260506230106 | 55 | 202 | 1.7 | 7.8 | 0.00 | 0.00 | 0.00 | 94 | 1006.4 |
| 20260506224551 | 55 | 157 | 0.9 | 4.3 | 0.00 | 0.00 | 0.00 | 94 | 1006.4 |
| 20260506223049 | 56 | 186 | 0.9 | 3.5 | 0.00 | 0.00 | 0.00 | 94 | 1006.5 |
| 20260506221607 | 56 | 136 | 0.0 | 4.3 | 0.00 | 0.00 | 0.00 | 94 | 1006.7 |
| 20260506220104 | 56 | 168 | 0.9 | 6.1 | 0.00 | 0.00 | 0.00 | 93 | 1006.9 |
| 20260506214548 | 57 | 320 | 0.9 | 4.3 | 0.00 | 0.00 | 0.00 | 92 | 1007.0 |
| 20260506213102 | 57 | 360 | 0.9 | 4.3 | 0.00 | 0.00 | 0.00 | 92 | 1007.0 |
| 20260506211543 | 57 | 107 | 0.9 | 6.1 | 0.00 | 0.00 | 0.00 | 92 | 1007.1 |
| 20260506210053 | 57 | 5 | 0.0 | 3.5 | 0.00 | 0.00 | 0.00 | 92 | 1007.2 |
| 20260506204541 | 57 | 202 | 1.7 | 7.0 | 0.00 | 0.00 | 0.00 | 91 | 1007.3 |
| 20260506203039 | 58 | 169 | 0.0 | 4.3 | 0.00 | 0.00 | 0.00 | 91 | 1007.5 |
| 20260506201544 | 58 | 164 | 0.0 | 7.8 | 0.00 | 0.00 | 0.00 | 91 | 1007.5 |
| 20260506200038 | 59 | 155 | 0.9 | 4.3 | 0.00 | 0.00 | 0.00 | 90 | 1007.6 |
| 20260506194536 | 60 | 261 | 1.7 | 5.2 | 0.00 | 0.00 | 0.00 | 87 | 1007.8 |
| 20260506193036 | 61 | 136 | 0.0 | 2.6 | 0.00 | 0.00 | 0.00 | 84 | 1007.8 |
| 20260506191535 | 62 | 277 | 0.9 | 5.2 | 0.00 | 0.00 | 0.00 | 79 | 1007.8 |
| 20260506190035 | 63 | 235 | 0.9 | 7.8 | 0.00 | 0.00 | 0.00 | 78 | 1008.0 |
| 20260506184535 | 63 | 289 | 0.9 | 5.2 | 0.00 | 0.00 | 0.00 | 76 | 1007.8 |
| 20260506183033 | 64 | 204 | 1.7 | 7.0 | 0.00 | 0.00 | 0.00 | 75 | 1008.0 |
| 20260506181539 | 65 | 134 | 1.7 | 6.1 | 0.00 | 0.00 | 0.00 | 74 | 1008.1 |
| 20260506180033 | 65 | 140 | 0.9 | 7.8 | 0.00 | 0.00 | 0.00 | 74 | 1008.2 |
| 20260506174532 | 66 | 211 | 1.7 | 7.8 | 0.00 | 0.00 | 0.00 | 73 | 1008.5 |